Location: Santiago
(33.4378°S, 70.6505°W)
Time: 18:31:47
(UTC+00:00)

ISS - Pass Details

Date: 12 October 2025
Orbit: 414 x 421 km, 51.6° (Epoch: 07 November)

Event Time Altitude Azimuth Distance (km) Brightness Sun altitude
Rises 22:47:49 0° 316° (NW) 2,361 0.6 0.4°
Reaches altitude 10° 22:49:54 10° 316° (NW) 1,502 -0.4 -0.1°
Maximum altitude 22:53:17 87° 46° (NE) 428 -3.7 -0.8°
Drops below altitude 10° 22:56:41 10° 133° (SE) 1,514 -1.3 -1.5°
Sets 22:58:48 0° 133° (SE) 2,383 -0.3 -1.9°
